EUTELSAT 7C

Last updated on Thu Feb 05 2026 00:02:52 GMT+0000 (Coordinated Universal Time)

1 44334U 19034B 26035.20228477 .00000041 00000+0 00000+0 0 9996 2 44334 0.0764 178.9598 0003353 123.8566 271.3224 1.00271149 5505
UTC large
Height (km)
Speed (km/s)
/
Latitude / Longitude
Inclination (degrees)
Orbital Period (minutes)
Azimuth
Elevation
Range (km)
Doppler Factor

Next 0 passes for location: London (51.5072 / 0.1276)

Sorry there are no passes over London.